Simultaneous Nadir Overpasses (SNOs) Predictions

Prediction of SNOs between GOES-16 and NOAA-20 Satellite Orbit:

Table of predicted SNOs for the next 14.0 days since TLE Epoch: 1/18/2019
Index Date Time (GOES-16) GOES-16 Lat,Lon NOAA-20 Lat,Lon Distance(km) Time Diff (sec)
1 01/18/2019 18:16:46 -0.02, -75.20 0.54, -72.70 284.90 80
2 01/20/2019 06:38:34 0.03, -75.20 0.67, -77.96 315.68 80
3 01/21/2019 06:17:11 0.02, -75.20 -0.37, -73.44 200.34 80
4 01/22/2019 18:41:48 -0.03, -75.19 -0.82, -78.74 404.53 80
5 01/23/2019 18:20:25 -0.02, -75.20 0.22, -74.22 112.03 80
6 01/25/2019 06:44:53 0.03, -75.21 0.99, -79.48 487.16 80
7 01/26/2019 06:23:30 0.03, -75.22 -0.05, -74.96 29.78 80
8 01/28/2019 18:29:22 -0.03, -75.23 -0.15, -75.73 56.40 80
9 01/29/2019 18:07:59 -0.03, -75.25 0.89, -71.20 461.14 80
10 01/31/2019 06:32:27 0.04, -75.27 0.33, -76.47 136.58 80
11 02/01/2019 06:11:04 0.03, -75.29 -0.72, -71.94 381.15 80




NCC Satellite Simultaneous Nadir Overpasses (SNOs) Prediction Service
